This is the latest recevied weather packets stored in our database for station/object AE5HO. If no packets are shown the sender has not sent any weather packets the latest 10 day(s).
| Time | Temp. | Humidity | Pressure | Rain* | Wind** | Luminosity | Snow |
|---|---|---|---|---|---|---|---|
| 1787596002 | 38.89° C | 34% | 1014 hPa | 0 mm | - | 109 W/m² | - |
| 1787595697 | 38.89° C | 36% | 1014.2 hPa | 0 mm | - | 114 W/m² | - |
| 1787595393 | 38.33° C | 38% | 1014.2 hPa | 0 mm | - | 99 W/m² | - |
| 1787595092 | 38.33° C | 38% | 1014.2 hPa | 0 mm | - | 104 W/m² | - |
| 1787594787 | 38.33° C | 39% | 1014.3 hPa | 0 mm | - | 141 W/m² | - |
| 1787594486 | 38.89° C | 37% | 1014.6 hPa | 0 mm | - | 144 W/m² | - |
| 1787594185 | 39.44° C | 34% | 1014.5 hPa | 0 mm | - | 138 W/m² | - |
| 1787593881 | 38.89° C | 36% | 1014.3 hPa | 0 mm | - | 136 W/m² | - |
| 1787593576 | 38.89° C | 35% | 1014.4 hPa | 0 mm | - | 125 W/m² | - |
| 1787593271 | 38.89° C | 35% | 1014.5 hPa | 0 mm | - | 127 W/m² | - |
| 1787592966 | 38.89° C | 35% | 1014.7 hPa | 0 mm | - | 184 W/m² | - |
| 1787592661 | 38.33° C | 35% | 1014.7 hPa | 0 mm | - | 243 W/m² | - |
| 1787592361 | 38.89° C | 36% | 1014.9 hPa | 0 mm | - | 84 W/m² | - |
| 1787592057 | 38.89° C | 35% | 1014.7 hPa | 0 mm | - | 100 W/m² | - |
| 1787591751 | 38.33° C | 36% | 1014.8 hPa | 0 mm | - | 78 W/m² | - |
| 1787591447 | 37.78° C | 35% | 1014.8 hPa | 0 mm | - | 590 W/m² | - |
| 1787591142 | 37.78° C | 36% | 1014.8 hPa | 0 mm | - | 606 W/m² | - |
| 1787590839 | 38.33° C | 36% | 1014.8 hPa | 0 mm | - | 586 W/m² | - |
| 1787590533 | 37.78° C | 36% | 1014.8 hPa | 0 mm | - | 566 W/m² | - |
| 1787590229 | 37.78° C | 38% | 1015 hPa | 0 mm | - | 593 W/m² | - |
| 1787589924 | 37.78° C | 37% | 1015.1 hPa | 0 mm | - | 614 W/m² | - |
| 1787589620 | 37.22° C | 37% | 1014.9 hPa | 0 mm | - | 592 W/m² | - |
| 1787589319 | 37.22° C | 38% | 1015 hPa | 0 mm | - | 590 W/m² | - |
| 1787589016 | 37.22° C | 38% | 1015 hPa | 0 mm | - | 602 W/m² | - |
| 1787588711 | 36.67° C | 39% | 1015.2 hPa | 0 mm | - | 603 W/m² | - |
* Rain latest hour (hover to see other rain measurements)
** Current wind speed in m/s (hover to see current wind gust speed)